Погода в Дорогино

Россия / Новосибирская область     54°21′44″N   83°19′12″E
темп.,
°C
ветер,
м/с
пор.,
м/с
влажн.,
%
обл.,
%
осадки,
мм/ч
давл.,
гПа
погр.,
м
20 апреля, вт
вт2001:00−8с4689100 0.3 1026589
04:00−8с357714 0.1 1026232
07:00−8ссз357642 0.1 1027460
10:00−7ссз4567100 0.1 10271159
13:00−5сз4562100 0.1 10271385
16:00−4сз3457100 0.1 10271333
19:00−4з24655 0.1 1026781
22:00−7юз22835 0.0 102730
21 апреля, ср
ср2101:00−7ююз348394 0.0 102662
04:00−6ююз3882100 0.0 1024197
07:00−5ююз4979100 0.0 1024345
10:00−3ююз6863100 0.0 1023906
13:00−1ююз5756100 0.0 10221427
16:00−1юз4581100 0.1 1022650
19:00−1юв3585100 0.3 1024550
22:00−3вюв5893100 0.7 1027536
22 апреля, чт
чт2201:00−3всв3791100 1.0 1029437
04:00−3ссв388990 0.1 1031293
07:00−4ссв612825 0.1 1034388
10:00−1ссв710680 0.0 1037896
13:00+1св7105777 0.0 10381726
16:00+2св695399 0.0 10391858
19:00+1ссв6106171 0.1 1041878
22:00−1ссв511795 0.0 1044314
23 апреля, пт
пт2301:00−2ссв511895 0.0 1044373
04:00−3ссв511925 0.0 1044354
07:00−3ссв5119414 0.0 1044368
10:00+1ссв610725 0.0 1043852
13:00+4св795064 0.0 10411588
16:00+5св7948100 0.0 10401880
19:00+4св610615 0.0 1040517
22:000ссв410795 0.0 1040191
24 апреля, сб
сб2401:00−1ссв5128777 0.0 1038333
04:00−1с51088100 0.0 1037271
07:00−1с51187100 0.0 1036343
10:00+2с697392 0.0 1034644
13:00+5ссв6862100 0.0 10331291
16:00+5ссв5762100 0.1 10321429
19:00+4с5971100 0.1 1032374
22:00+2с3682100 0.0 1032131